CZ-3B DEB, 40162

Orbit data source: Space-Track

CZ-3B DEB, 40162 is space debris in HEO originally from a launch on Sat, 04 Sep 2010 UTC launched from the Xichang Space Center, China (XSC). Debris objects in space refer to the collection of defunct objects orbiting the Earth. Examples of debris include non-operational satellites, rocket bodies, and fragments generated from explosions, collisions, or faulty payload assembly.

Loading next visibility...
Identifier
40162, 2010-042P
Orbit
HEO
Country
Flag of CNCN / PRC
Related business
Manufacturer
CALT
Mission
Spacecraft
Bus & Motor
Unknown
Mass
Unknown
Launch date (UTC)
2010-09-04 (15 years ago)
Launch vehicle
Unknown
Launch site
Xichang Space Center, China (XSC)
Object type
Payload
Rocket body
Debris
Shape & HBR
Unknown shape, 0.2 m
Radar Cross Section
Medium (>0.1 m² and <1 m²)

Expand to show TLE details & history
Last TLE update: 4 days ago

TLE from 4 days ago
0 CZ-3B DEB
1 40162U 10042P   25307.09064828 -.00000017  00000-0  00000-0 0  9993
2 40162  27.1896 310.2542 7220113 266.8733  16.0821  1.92074068 83866
Epoch: 2025-11-03T02:10Z
TLE epoch observation values (Epoch: 2025-11-03T02:10:32.011Z)
Latitude
-0.00028°
Longitude
-125.0529°
Altitude
7,193.747 km
Speed
6.645 km/s
True Right ascension
20h 40m 42s
True Declination
0° 00' 01"
Sunlit
Object was in daylight at epoch
Visualization orbit readout
Latitude
Unknown
Longitude
Unknown
Altitude
Unknown
Speed
Unknown
Apparent Right ascension
Unknown
Apparent Declination
Unknown
Sunlit
N/A
Visualization observer readout
Local Sidereal Time
07:57:21
Azimuth
Unknown
Elevation
Unknown
Doppler factor
Unknown
Orbital elements
Apogee altitude
40,702.828 km
Perigee altitude
1,222.264 km
Semi-major axis
27,340.683 km
Eccentricity
0.72201
Inclination
27.1896°
RAAN
310.2542°
Arg. of periapsis
266.8733°
True anomaly
92.69727°
Mean anomaly
16.0821°
Eccentric anomaly
45.67785°
Mean motion
0.4801 °/min
Orbital period
749.85 mins
BSTAR
0
Loading maneuver chart data...
Computing Atmospheric mass density...
Loading historical data...
Loading historical data...
Loading historical data...
Loading historical data...
Loading historical data...
Loading historical data...
Loading historical data...

Documentation

Showing up to 5 results
|